Dewpoint
50 50 49 50 51 52 52 52 51 51 52 51 50 48 48 48 50 47 43 43 46 50 51 49 46 46 42 40 35 21 17 16 17 24 25 23 22 23 38 51 61 56 60 63 63
49 49 49 51 52 52 52 52 52 52 51 52 52 51 48 49 46 44 47 48 50 50 48 46 43 41 39 39 36 21 17 14 16 23 21 19 19 19 35 58 58 59 61 62 65
50 50 51 50 51 52 52 52 52 51 51 52 52 52 49 48 39 33 49 52 50 46 50 47 46 42 38 37 36 32 26 16 17 18 17 16 16 18 36 50 58 57 59 61 64
49 50 50 51 51 52 52 52 52 52 51 52 52 52 50 45 8 29 46 46 46 44 48 46 44 39 36 36 36 34 31 26 18 21 20 18 19 21 18 20 34 50 59 60 61
50 50 50 50 51 52 52 52 53 52 52 52 52 52 44 35 36 39 45 41 39 38 45 44 41 38 34 37 37 35 34 30 29 28 27 24 22 21 21 22 23 22 50 60 60
50 50 50 50 50 51 51 52 53 52 52 52 52 48 39 30 34 37 37 39 39 36 36 38 41 41 36 36 35 34 35 34 33 28 25 23 21 23 22 24 22 46 57 60 60
50 49 50 50 50 51 51 52 53 53 52 49 50 45 39 33 35 39 38 36 37 35 33 35 40 40 36 35 36 37 33 32 32 31 27 22 21 20 22 22 21 28 60 61 62
52 50 50 50 50 51 52 52 52 53 51 49 49 44 36 38 39 39 38 37 37 36 35 34 35 40 38 36 36 37 32 29 30 29 28 23 17 19 21 20 21 22 59 62 64
51 49 50 50 51 52 52 52 53 52 49 49 43 39 35 40 37 38 38 38 37 37 38 36 35 35 37 34 34 35 28 28 28 29 25 23 19 19 20 20 20 23 58 60 64
51 49 50 50 51 52 52 51 51 50 50 48 44 40 38 34 37 43 41 38 35 37 35 37 36 35 35 36 29 31 30 27 27 23 23 22 19 18 20 20 21 35 57 60 63
50 49 50 52 51 52 49 41 36 37 42 36 35 37 36 37 40 41 39 37 40 39 34 38 35 31 34 36 36 36 30 23 27 25 21 17 20 19 19 19 21 35 57 60 61
50 50 51 51 51 51 48 37 35 38 36 39 39 38 37 39 37 40 39 36 36 32 36 36 35 34 36 37 37 37 34 31 23 25 16 17 16 18 19 19 27 43 56 59 59
50 50 51 51 51 48 43 41 38 39 35 35 35 36 37 40 40 39 38 35 34 31 34 33 36 38 36 35 35 36 34 32 24 24 20 16 16 17 35 50 46 51 55 58 59
50 50 51 51 45 44 42 44 40 39 30 30 35 38 38 43 42 43 45 41 35 31 36 35 38 37 37 37 36 33 34 33 32 22 16 17 11 17 32 47 49 48 54 55 58
49 50 51 49 40 41 41 42 42 36 16 30 35 40 41 40 40 40 44 43 34 34 35 30 37 33 38 36 35 32 33 32 32 21 18 19 13 15 41 44 48 50 53 55 58
49 50 50 47 45 44 43 44 39 27 19 32 36 35 36 40 39 40 41 43 42 38 37 34 38 38 36 35 34 32 30 26 25 21 16 17 16 16 30 27 45 51 53 56 58
49 50 48 43 38 44 45 40 28 22 31 32 34 36 37 37 38 38 36 34 33 29 28 32 34 36 32 29 31 29 24 21 18 20 17 23 20 17 23 27 41 48 52 56 58
48 48 47 45 43 43 41 32 25 28 32 36 37 37 37 37 35 37 36 32 34 34 32 27 23 29 29 27 28 27 25 24 16 20 20 27 19 19 28 28 44 50 51 56 57
47 43 42 41 46 43 34 28 27 31 34 36 37 36 35 38 39 35 35 34 34 37 33 30 29 28 29 29 27 27 25 28 26 26 19 23 24 25 31 39 49 53 55 55 56
41 41 40 39 43 37 32 31 32 37 38 39 35 36 35 38 37 36 31 34 33 37 37 32 28 27 29 29 29 27 30 26 28 21 16 22 24 18 27 34 43 50 53 55 55
39 34 38 37 37 34 29 29 33 36 40 37 35 36 36 37 36 37 35 35 40 40 37 33 33 25 28 26 25 25 26 31 32 31 24 23 21 33 42 44 34 41 50 53 54
38 25 36 34 28 30 26 28 35 36 39 39 40 39 37 35 36 35 38 39 43 43 35 37 32 27 22 22 25 24 25 29 26 27 30 30 26 43 47 49 49 46 38 48 52
35 35 39 35 26 28 30 31 33 32 35 37 36 38 38 35 34 37 39 42 41 42 38 36 32 19 17 20 25 24 28 31 31 32 28 26 25 41 48 48 49 49 44 47 51
32 28 32 31 32 29 29 29 28 32 32 32 37 37 36 34 37 34 33 39 37 43 46 43 35 26 20 19 26 21 27 31 29 27 28 31 30 37 48 49 49 50 47 49 52
34 30 31 27 30 32 29 29 28 30 31 33 34 34 35 34 34 34 34 35 35 43 42 42 33 36 34 35 28 21 22 30 28 28 28 29 33 44 48 50 50 52 51 53 55
34 33 34 32 32 31 30 28 30 31 30 28 28 28 35 33 34 35 35 33 34 40 37 40 37 40 34 35 31 27 26 28 30 35 39 39 39 49 49 48 48 51 52 53 54
36 36 36 32 30 29 28 31 31 32 31 30 31 31 33 34 36 36 36 36 35 35 35 37 39 35 28 35 25 20 24 26 29 33 37 38 41 47 47 45 45 46 47 50 51
Lifted_Index
18 18 18 17 17 17 17 16 16 16 16 16 16 16 16 15 15 14 13 13 12 10 10 10 10 10 9 8 9 9 7 6 6 6 6 7 7 5 3 -1 -3 -3 -2 -2 -2
18 18 18 17 17 17 16 16 16 16 16 15 15 15 15 14 13 12 11 10 10 9 9 9 9 9 9 8 9 8 8 7 8 8 7 7 7 6 3 -1 -3 -3 -3 -2 -2
18 18 17 17 17 16 16 16 15 15 15 14 13 13 13 12 11 9 8 8 8 9 8 8 8 8 8 8 8 8 8 9 10 10 9 8 7 6 4 1 -2 -3 -2 -2 -2
17 17 17 17 16 16 16 15 15 15 14 13 12 12 12 11 9 8 8 8 8 8 7 7 7 7 8 8 8 8 9 9 10 11 10 9 8 6 5 4 1 -1 -1 -2 -2
17 17 17 16 16 15 15 14 14 14 13 13 12 11 11 11 10 9 9 9 8 7 6 6 6 7 7 7 7 8 8 9 10 10 11 10 8 7 6 5 4 2 0 -1 -2
17 17 16 15 15 15 14 14 13 13 13 12 11 11 11 10 9 9 9 9 7 6 5 5 5 6 7 7 7 7 8 8 9 9 10 10 8 7 6 6 5 3 -0 -2 -2
17 17 15 15 14 13 13 13 13 12 12 12 11 11 10 9 8 8 8 7 7 5 4 4 4 5 6 7 6 7 7 7 8 9 9 9 7 6 6 6 6 3 -1 -3 -3
17 16 15 14 13 12 12 12 12 12 12 12 11 9 9 8 8 7 6 6 5 5 4 3 3 5 6 6 5 5 6 7 7 8 9 8 6 6 7 6 6 3 -1 -3 -3
16 16 14 13 12 11 11 11 11 11 11 11 9 8 7 7 6 6 5 5 5 5 4 4 3 4 5 5 5 5 5 6 7 8 9 8 6 7 7 6 5 3 -1 -3 -4
16 15 14 12 11 10 10 9 10 10 9 9 8 6 5 5 5 5 4 4 3 3 3 3 3 4 4 4 4 4 5 6 6 7 8 8 7 7 7 6 5 3 -0 -3 -3
15 14 13 11 10 9 8 8 8 8 7 7 6 5 4 4 4 4 3 3 2 2 2 1 2 3 4 4 3 3 4 5 6 7 7 7 8 8 7 6 5 3 -0 -2 -3
14 13 12 11 9 8 8 7 7 7 7 6 5 4 4 4 4 3 3 2 1 1 1 1 1 2 3 3 2 2 3 4 5 6 7 7 8 8 7 6 5 3 -0 -2 -3
13 12 11 10 9 8 7 7 7 7 6 6 5 4 3 3 3 3 2 1 1 0 1 1 1 1 1 1 2 2 2 3 4 5 6 6 7 7 6 5 4 3 0 -2 -2
12 11 10 9 8 7 7 7 7 6 6 5 4 4 3 3 3 2 1 1 0 0 0 1 1 0 0 0 1 2 2 2 3 4 5 5 5 5 5 4 4 3 1 0 -1
11 11 10 9 8 7 7 7 7 5 4 4 4 3 2 2 2 2 1 1 0 0 0 1 1 0 0 0 1 1 1 2 3 3 4 4 4 4 5 4 4 3 2 1 1
11 10 9 9 8 8 8 7 6 4 3 3 3 2 1 1 2 2 1 1 0 0 1 1 1 0 0 -0 0 0 1 1 2 3 3 4 4 4 4 4 4 3 2 1 1
12 10 9 9 9 8 8 7 5 4 4 4 3 2 1 1 1 2 1 1 1 0 1 1 0 0 -0 0 0 0 1 1 1 1 2 3 4 4 4 5 4 3 2 1 0
12 10 9 9 9 8 8 7 5 5 5 4 3 1 1 1 1 1 1 1 1 0 0 0 0 0 0 0 1 1 1 1 1 1 2 3 3 4 5 5 4 3 2 1 0
11 10 9 9 8 8 7 7 6 5 5 4 3 2 1 1 1 0 0 0 0 0 0 0 0 1 1 1 1 1 1 1 1 1 2 2 3 4 4 4 3 2 1 0 0
11 9 9 9 9 8 8 7 7 6 5 4 3 2 1 1 1 0 0 0 0 0 0 0 0 1 1 1 1 1 1 2 2 1 1 1 2 3 3 4 3 2 1 -0 -0
10 9 9 10 10 9 9 8 8 6 4 4 3 3 2 1 1 0 -0 -0 -0 -0 0 0 0 1 1 1 1 1 2 2 2 1 1 1 2 2 2 3 3 3 2 1 -0
10 10 10 11 10 10 10 9 8 6 5 4 3 3 2 2 1 0 -0 -0 -0 -0 -0 -0 0 1 1 2 2 2 2 2 2 2 2 2 2 2 2 2 3 3 3 2 1
10 10 11 12 11 11 11 10 8 7 6 4 4 3 3 2 2 1 0 0 -0 -0 -0 -0 0 1 1 2 2 2 2 3 3 3 3 2 2 2 1 1 2 3 3 3 3
11 11 12 12 12 12 11 10 9 7 6 5 4 4 3 3 2 2 1 0 0 -0 -0 -0 0 0 1 1 2 2 2 2 3 3 3 3 3 2 1 1 1 2 3 3 2
12 12 12 13 12 12 11 10 8 7 6 5 5 4 4 4 3 2 1 1 0 0 -0 -0 -0 0 0 0 1 2 2 2 2 3 3 3 2 1 1 1 1 1 1 1 1
13 13 13 13 12 12 11 9 8 6 6 6 5 5 5 4 4 3 3 2 1 0 0 0 0 0 -0 0 1 1 1 2 2 2 2 2 1 0 0 0 0 -0 -0 -0 -1
14 14 14 13 13 12 11 9 7 6 6 6 6 6 5 5 5 5 4 3 2 1 0 0 0 0 -0 0 0 1 1 1 1 1 1 1 0 -0 -0 -0 -1 -1 -1 -2 -2